TimeCDT,TemperatureF,Dew PointF,Humidity,Sea Level PressureIn,VisibilityMPH,Wind Direction,Wind SpeedMPH,Gust SpeedMPH,PrecipitationIn,Events,Conditions,WindDirDegrees,DateUTC
12:53 AM,35.1,28.0,76,30.11,10.0,North,13.8,-,N/A,,Overcast,350,2012-11-01 05:53:00
1:11 AM,33.8,26.6,75,30.09,10.0,NNW,18.4,-,N/A,,Overcast,340,2012-11-01 06:11:00
1:53 AM,33.1,27.0,78,30.12,10.0,North,20.7,25.3,N/A,,Overcast,350,2012-11-01 06:53:00
2:27 AM,33.8,26.6,75,30.10,10.0,North,19.6,27.6,N/A,,Overcast,350,2012-11-01 07:27:00
2:53 AM,32.0,26.1,79,30.13,10.0,NNW,16.1,-,N/A,,Overcast,340,2012-11-01 07:53:00
3:34 AM,30.2,24.8,80,30.11,10.0,North,16.1,-,N/A,,Overcast,350,2012-11-01 08:34:00
3:53 AM,30.0,25.0,82,30.14,10.0,NNW,15.0,-,N/A,,Overcast,340,2012-11-01 08:53:00
4:53 AM,30.0,24.1,79,30.14,10.0,NNW,15.0,-,N/A,,Overcast,340,2012-11-01 09:53:00
5:53 AM,30.0,21.9,72,30.17,10.0,NNW,17.3,-,N/A,,Overcast,340,2012-11-01 10:53:00
6:31 AM,30.2,21.2,69,30.13,10.0,North,16.1,26.5,N/A,,Overcast,360,2012-11-01 11:31:00
6:53 AM,28.9,21.0,72,30.16,10.0,North,13.8,-,N/A,,Overcast,360,2012-11-01 11:53:00
7:53 AM,28.9,19.9,69,30.17,10.0,North,18.4,27.6,N/A,,Overcast,350,2012-11-01 12:53:00
8:53 AM,28.0,19.9,72,30.18,10.0,North,15.0,-,N/A,,Overcast,350,2012-11-01 13:53:00
9:53 AM,28.0,19.0,69,30.19,10.0,North,16.1,-,N/A,,Overcast,350,2012-11-01 14:53:00
10:53 AM,28.9,19.9,69,30.20,10.0,North,16.1,-,N/A,,Overcast,10,2012-11-01 15:53:00
11:53 AM,28.9,19.9,69,30.19,10.0,North,15.0,-,N/A,,Overcast,360,2012-11-01 16:53:00
12:53 PM,30.0,21.0,69,30.19,10.0,North,15.0,19.6,N/A,,Overcast,360,2012-11-01 17:53:00
1:53 PM,30.0,21.0,69,30.16,10.0,North,10.4,-,N/A,,Overcast,350,2012-11-01 18:53:00
2:53 PM,30.9,21.0,67,30.16,10.0,North,8.1,-,N/A,,Overcast,10,2012-11-01 19:53:00
3:53 PM,30.9,21.0,67,30.15,10.0,North,11.5,-,N/A,,Overcast,10,2012-11-01 20:53:00
4:53 PM,32.0,21.9,66,30.15,10.0,North,12.7,-,N/A,,Overcast,10,2012-11-01 21:53:00
5:53 PM,32.0,21.9,66,30.15,10.0,NNE,12.7,-,N/A,,Overcast,20,2012-11-01 22:53:00
6:53 PM,30.9,23.0,72,30.16,10.0,North,10.4,-,N/A,,Overcast,10,2012-11-01 23:53:00
7:53 PM,30.9,23.0,72,30.17,10.0,NNE,10.4,-,N/A,,Overcast,20,2012-11-02 00:53:00
8:53 PM,30.0,23.0,75,30.16,10.0,NNE,10.4,-,N/A,,Overcast,30,2012-11-02 01:53:00
9:53 PM,30.0,23.0,75,30.16,10.0,NNE,11.5,-,N/A,,Overcast,30,2012-11-02 02:53:00
10:53 PM,28.9,23.0,78,30.16,10.0,NNE,6.9,-,N/A,,Overcast,20,2012-11-02 03:53:00
11:53 PM,30.0,23.0,75,30.17,10.0,NE,6.9,-,N/A,,Overcast,50,2012-11-02 04:53:00